K3RTA-2 Weather Reports


time (UTC)temp
F
wind
direction
speed
knots
gust
knots
rain 1hr
in
rain 24hr
in
rain mn
in
humidity
%
barometer
mb
20240420174004 64 96 0.0 2.6 0.00 0.00 0.00 72 1013.9
20240420173505 64 22 0.9 4.3 0.00 0.00 0.00 73 1013.9
20240420172004 63 340 2.6 4.3 0.00 0.00 0.00 73 1014.3
20240420171503 64 296 1.7 4.3 0.00 0.00 0.00 73 1014.4
20240420171003 63 340 0.9 7.0 0.00 0.00 0.00 75 1014.3
20240420170504 63 318 0.9 5.2 0.00 0.00 0.00 76 1014.6
20240420170004 63 337 3.5 7.0 0.00 0.00 0.00 76 1014.7
20240420165505 63 1 4.3 7.0 0.00 0.00 0.00 76 1014.7
20240420165004 63 340 2.6 7.0 0.00 0.00 0.00 77 1014.7
20240420164005 64 354 2.6 7.8 0.00 0.00 0.00 76 1014.7
20240420163505 63 353 4.3 7.0 0.00 0.00 0.00 74 1014.8
20240420163004 64 344 2.6 5.2 0.00 0.00 0.00 73 1014.9
20240420162005 64 359 1.7 4.3 0.00 0.00 0.00 73 1014.8
20240420161503 64 279 0.9 2.6 0.00 0.00 0.00 72 1014.9
20240420161004 64 329 1.7 4.3 0.00 0.00 0.00 71 1014.9
20240420160503 64 221 0.9 2.6 0.00 0.00 0.00 75 1015.0
20240420160004 63 99 0.9 2.6 0.00 0.00 0.00 76 1014.9
20240420155503 62 347 0.9 2.6 0.00 0.00 0.00 77 1015.0
20240420155005 62 339 0.9 2.6 0.00 0.00 0.00 78 1014.9
20240420154503 62 353 0.0 2.6 0.00 0.00 0.00 80 1014.9
20240420154005 62 232 0.0 0.9 0.00 0.00 0.00 83 1015.1
20240420153504 61 237 0.9 1.7 0.00 0.00 0.00 83 1015.1
20240420153004 61 186 0.0 1.7 0.00 0.00 0.00 85 1015.2
20240420152504 60 81 0.9 2.6 0.00 0.00 0.00 86 1015.1
20240420152003 60 1 1.7 2.6 0.00 0.00 0.00 86 1015.3
20240420151504 60 325 0.9 5.2 0.00 0.00 0.00 86 1015.4
20240420151003 60 349 2.6 5.2 0.00 0.00 0.00 86 1015.4
20240420150505 60 347 1.7 5.2 0.00 0.00 0.00 86 1015.4
20240420150004 60 336 1.7 7.0 0.00 0.00 0.00 86 1015.3
20240420145504 60 346 1.7 6.1 0.00 0.00 0.00 85 1015.3
20240420144504 60 287 0.0 1.7 0.00 0.00 0.00 87 1015.3
20240420144004 59 217 0.0 2.6 0.00 0.00 0.00 87 1015.3
20240420143503 59 117 1.7 2.6 0.00 0.00 0.00 89 1015.3
20240420143004 58 5 0.9 2.6 0.00 0.00 0.00 89 1015.4
20240420142504 58 202 0.9 2.6 0.00 0.00 0.00 89 1015.6
20240420142005 58 283 0.9 2.6 0.00 0.00 0.00 90 1015.7
20240420141504 58 338 0.0 0.9 0.00 0.00 0.00 90 1015.6
20240420141004 58 330 0.9 2.6 0.00 0.00 0.00 89 1015.6
20240420140504 58 352 0.9 2.6 0.00 0.00 0.00 89 1015.7
20240420140004 58 336 0.9 2.6 0.00 0.00 0.00 89 1015.7
20240420134505 58 295 0.0 0.9 0.00 0.00 0.00 89 1015.6
20240420134004 58 1 0.0 2.6 0.00 0.00 0.00 89 1015.6
20240420133004 57 287 0.0 2.6 0.00 0.00 0.00 90 1015.5
20240420132504 57 286 0.0 0.0 0.00 0.00 0.00 91 1015.4
20240420131004 55 141 0.0 0.9 0.00 0.00 0.00 94 1015.4
20240420130504 54 126 0.0 0.9 0.00 0.00 0.00 94 1015.6
20240420125505 53 245 0.0 1.7 0.00 0.00 0.00 95 1015.8
20240420125005 53 327 0.0 0.9 0.00 0.00 0.00 95 1016.0
20240420124503 53 188 0.0 0.9 0.00 0.00 0.00 95 1016.0
20240420124005 53 278 0.0 0.9 0.00 0.00 0.00 95 1016.0
20240420123004 52 209 0.0 0.0 0.00 0.00 0.00 96 1016.0
20240420122504 52 209 0.0 0.0 0.00 0.00 0.00 96 1016.1
20240420122005 52 183 0.0 0.0 0.00 0.00 0.00 96 1016.0
20240420121505 52 128 0.0 0.0 0.00 0.00 0.00 96 1016.0
20240420121004 52 128 0.0 0.0 0.00 0.00 0.00 96 1015.9
20240420120504 52 127 0.0 0.9 0.00 0.00 0.00 96 1015.9
20240420120004 51 124 0.0 0.0 0.00 0.00 0.00 96 1016.0
20240420115505 51 190 0.0 0.0 0.00 0.00 0.00 96 1016.2
20240420115004 51 190 0.0 0.0 0.00 0.00 0.00 96 1016.2
20240420114504 51 191 0.0 0.0 0.00 0.00 0.00 96 1016.2
20240420114005 51 174 0.0 0.0 0.00 0.00 0.00 96 1016.2
20240420113505 51 144 0.0 0.0 0.00 0.00 0.00 96 1016.1
20240420113005 51 150 0.0 0.0 0.00 0.00 0.00 96 1016.0
20240420112504 51 141 0.0 0.0 0.00 0.00 0.00 96 1016.1
20240420112004 51 214 0.0 0.0 0.00 0.00 0.00 96 1016.2
20240420111005 51 181 0.0 0.0 0.00 0.00 0.00 97 1016.0
20240420110504 51 181 0.0 0.0 0.00 0.00 0.00 97 1016.0
20240420110003 51 155 0.0 0.9 0.00 0.00 0.00 97 1015.7
20240420105504 51 155 0.0 0.9 0.00 0.00 0.00 97 1015.6
20240420105004 51 159 0.0 1.7 0.00 0.00 0.00 97 1015.5
20240420104503 51 134 0.0 1.7 0.00 0.00 0.00 97 1015.6
20240420104004 51 148 0.0 1.7 0.00 0.00 0.00 96 1015.8
20240420103504 51 198 0.0 0.0 0.00 0.00 0.00 96 1015.8
20240420103004 51 125 0.0 0.0 0.00 0.00 0.00 97 1015.4
20240420102504 51 118 0.0 0.0 0.00 0.00 0.00 97 1015.5
20240420102003 51 160 0.0 0.0 0.00 0.00 0.00 96 1015.7
20240420101504 51 155 0.0 0.9 0.00 0.00 0.00 96 1015.7
20240420101004 51 148 0.0 0.9 0.00 0.00 0.00 96 1015.8
20240420100004 51 316 0.0 0.0 0.00 0.00 0.00 96 1015.8
20240420095504 51 316 0.0 0.0 0.00 0.00 0.00 96 1015.7
20240420095003 51 316 0.0 0.0 0.00 0.00 0.00 96 1015.4
20240420094505 51 316 0.0 0.0 0.00 0.00 0.00 96 1015.5
20240420094005 51 316 0.0 0.0 0.00 0.00 0.00 96 1015.5
20240420093504 51 316 0.0 0.0 0.00 0.00 0.00 96 1015.5
20240420093004 51 316 0.0 0.0 0.00 0.00 0.00 96 1015.6
20240420092503 51 317 0.0 0.0 0.00 0.00 0.00 96 1015.5
20240420092004 51 317 0.0 0.0 0.00 0.00 0.00 96 1015.5
20240420091504 50 317 0.0 0.0 0.00 0.00 0.00 97 1015.4
20240420091004 50 318 0.0 0.9 0.00 0.00 0.00 96 1015.4
20240420090504 51 123 0.0 0.0 0.00 0.00 0.00 97 1015.2
20240420090003 50 123 0.0 0.0 0.00 0.00 0.00 97 1015.2
20240420085504 50 134 0.0 0.9 0.00 0.00 0.00 97 1015.3
20240420084503 50 255 0.0 0.9 0.00 0.00 0.00 97 1015.4
20240420084004 50 159 0.0 0.0 0.00 0.00 0.00 97 1015.3
20240420083003 50 158 0.0 0.9 0.00 0.00 0.00 97 1015.3
20240420082504 50 154 0.0 0.9 0.00 0.00 0.00 97 1015.2
20240420082005 50 156 0.0 0.9 0.00 0.00 0.00 97 1015.2
20240420081503 50 155 0.0 0.0 0.00 0.00 0.00 97 1015.2
20240420081004 50 154 0.0 0.0 0.00 0.00 0.00 97 1015.2
20240420080004 50 166 0.0 0.0 0.00 0.00 0.00 97 1015.4
20240420075504 50 160 0.0 0.0 0.00 0.00 0.00 97 1015.4
20240420075005 50 127 0.0 0.0 0.00 0.00 0.00 97 1015.6
20240420074005 50 146 0.0 0.0 0.00 0.00 0.00 97 1015.7
20240420073503 50 146 0.0 0.0 0.00 0.00 0.00 97 1015.6
20240420072504 50 146 0.0 0.0 0.00 0.00 0.00 97 1015.7
20240420072003 50 146 0.0 0.0 0.00 0.00 0.00 97 1015.6
20240420071504 50 146 0.0 0.0 0.00 0.00 0.00 97 1015.7
20240420071004 50 146 0.0 0.0 0.00 0.00 0.00 97 1015.7
20240420070503 50 146 0.0 0.0 0.00 0.00 0.00 97 1015.7
20240420065503 50 146 0.0 0.0 0.00 0.00 0.00 97 1015.8
20240420065004 50 212 0.0 0.0 0.00 0.00 0.00 97 1015.9
20240420064504 50 212 0.0 0.0 0.00 0.00 0.00 97 1015.9
20240420064003 50 212 0.0 0.0 0.00 0.00 0.00 97 1015.9
20240420063504 50 212 0.0 0.0 0.00 0.00 0.00 97 1016.0
20240420063003 50 144 0.0 0.0 0.00 0.00 0.00 97 1016.1
20240420062503 50 144 0.0 0.0 0.00 0.00 0.00 97 1016.2
20240420062005 50 142 0.0 0.0 0.00 0.00 0.00 97 1016.3
20240420061505 50 137 0.0 0.0 0.00 0.00 0.00 97 1016.3
20240420061005 50 136 0.0 0.0 0.00 0.00 0.00 97 1016.3
20240420060504 50 234 0.0 0.0 0.00 0.00 0.00 97 1016.6
20240420060004 50 234 0.0 0.0 0.00 0.00 0.00 97 1016.6
20240420055504 50 234 0.0 0.0 0.00 0.00 0.00 97 1016.6
20240420055004 50 234 0.0 0.9 0.00 0.00 0.00 96 1016.6
20240420054505 50 148 0.0 0.0 0.00 0.00 0.00 97 1016.7
20240420054004 50 148 0.0 0.0 0.00 0.00 0.00 97 1016.7
20240420053503 50 148 0.0 0.0 0.00 0.00 0.00 96 1016.6
20240420053004 50 130 0.0 0.0 0.00 0.00 0.00 97 1016.7
20240420052504 50 130 0.0 0.9 0.00 0.00 0.00 97 1016.8
20240420052004 50 132 0.0 0.0 0.00 0.00 0.00 97 1017.0
20240420051504 50 132 0.0 0.0 0.00 0.00 0.00 96 1016.9
20240420051004 50 132 0.0 0.0 0.00 0.00 0.00 96 1016.9
20240420050005 50 130 0.0 0.9 0.00 0.00 0.00 96 1016.6
20240420045504 50 217 0.0 0.0 0.00 0.00 0.00 97 1016.7
20240420044504 50 217 0.0 2.6 0.00 0.00 0.00 96 1016.5
20240420043503 50 139 0.0 1.7 0.00 0.00 0.00 96 1016.8
20240420042504 50 148 0.9 2.6 0.00 0.00 0.00 96 1016.8
20240420042005 50 118 0.9 0.9 0.00 0.00 0.00 96 1016.8
20240420041504 50 133 0.0 0.9 0.00 0.00 0.00 96 1017.0
20240420041004 50 116 0.0 0.0 0.00 0.00 0.00 96 1017.1
20240420040004 50 139 0.0 0.0 0.00 0.00 0.00 96 1017.3
20240420035504 50 117 0.0 0.0 0.00 0.00 0.00 96 1017.3
20240420035005 50 129 0.0 0.0 0.00 0.00 0.00 96 1017.3
20240420034503 50 154 0.0 0.0 0.00 0.00 0.00 96 1017.4
20240420034005 50 147 0.0 0.0 0.00 0.00 0.00 96 1017.2
20240420033503 50 146 0.0 0.0 0.00 0.00 0.00 96 1017.2
20240420033003 50 160 0.0 0.0 0.00 0.00 0.00 96 1017.3
20240420032003 50 137 0.0 0.0 0.00 0.00 0.00 96 1017.3
20240420031505 50 129 0.0 0.0 0.00 0.00 0.00 96 1017.4
20240420031004 50 111 0.0 0.0 0.00 0.00 0.00 96 1017.3
20240420030504 50 155 0.0 0.0 0.00 0.00 0.00 96 1017.5
20240420030004 50 146 0.0 0.0 0.00 0.00 0.00 96 1017.5
20240420025005 50 120 0.0 1.7 0.00 0.00 0.00 96 1017.4
20240420024504 50 115 0.0 0.0 0.00 0.00 0.00 95 1017.3
20240420024004 50 120 0.0 1.7 0.00 0.00 0.00 95 1017.5
20240420023505 50 136 0.0 0.0 0.00 0.00 0.00 95 1017.6
20240420023004 50 136 0.0 0.9 0.00 0.00 0.00 95 1017.8
20240420022005 50 137 0.0 0.0 0.00 0.00 0.00 95 1017.8
20240420021504 50 137 0.0 0.0 0.00 0.00 0.00 95 1017.7
20240420021004 50 135 0.0 0.0 0.00 0.00 0.00 95 1017.9
20240420020504 50 135 0.0 0.0 0.00 0.00 0.00 95 1018.0
20240420020005 50 135 0.0 0.0 0.00 0.00 0.00 95 1018.1
20240420015503 50 135 0.0 0.0 0.00 0.00 0.00 95 1018.1
20240420015005 50 135 0.0 0.0 0.00 0.00 0.00 95 1018.1
20240420014504 50 135 0.0 0.0 0.00 0.00 0.00 95 1018.3
20240420014003 50 135 0.0 0.0 0.00 0.00 0.00 95 1018.3
20240420013505 50 135 0.0 0.9 0.00 0.00 0.00 95 1018.2
20240420013004 50 136 0.0 0.9 0.00 0.00 0.00 95 1018.1
20240420012505 50 141 0.0 0.9 0.00 0.00 0.00 95 1018.3
20240420012005 50 141 0.0 0.0 0.00 0.00 0.00 95 1018.1
20240420011505 50 141 0.0 0.0 0.00 0.00 0.00 95 1018.2
20240420011004 50 142 0.0 0.0 0.00 0.00 0.00 95 1018.2
20240420005504 50 188 0.0 0.0 0.00 0.00 0.00 95 1018.0
20240420004504 50 201 0.0 0.9 0.00 0.00 0.00 95 1017.8
20240420004004 50 155 0.9 2.6 0.00 0.00 0.00 95 1017.5
20240420003503 50 148 0.0 2.6 0.00 0.00 0.00 95 1017.3
20240420003004 49 127 1.7 2.6 0.00 0.00 0.00 95 1017.2
20240420002504 49 133 1.7 4.3 0.00 0.00 0.00 95 1017.2
20240420002004 49 125 0.9 4.3 0.00 0.00 0.00 95 1017.1
20240420001505 50 114 2.6 5.2 0.00 0.00 0.00 95 1017.1
20240420001004 50 115 0.9 2.6 0.00 0.00 0.00 95 1017.2
20240420000504 50 113 0.9 2.6 0.00 0.00 0.00 95 1017.3
20240420000004 50 135 1.7 2.6 0.00 0.00 0.00 95 1017.4
20240419235504 50 189 0.9 2.6 0.00 0.00 0.00 95 1017.3
20240419234504 50 160 0.0 2.6 0.00 0.00 0.00 95 1017.2
20240419234004 50 146 0.9 5.2 0.00 0.00 0.00 95 1017.2
20240419233004 50 120 1.7 5.2 0.00 0.00 0.00 95 1016.9
20240419232504 50 135 0.9 4.3 0.00 0.00 0.00 95 1017.0
20240419231504 50 109 1.7 2.6 0.00 0.00 0.00 95 1017.1
20240419230005 50 80 0.9 2.6 0.00 0.00 0.00 95 1017.3
20240419225505 50 126 1.7 2.6 0.00 0.00 0.00 94 1017.2
20240419224004 50 18 0.0 1.7 0.00 0.00 0.00 94 1017.3
20240419223004 50 112 4.3 7.8 0.00 0.00 0.00 93 1017.2
20240419222505 50 114 1.7 5.2 0.00 0.00 0.00 93 1017.3
20240419222003 50 106 4.3 7.0 0.00 0.00 0.00 92 1017.3
20240419221504 51 143 2.6 6.1 0.00 0.00 0.00 92 1017.3
20240419221004 51 144 0.9 4.3 0.00 0.00 0.00 92 1017.3
20240419220004 51 119 1.7 2.6 0.00 0.00 0.00 92 1017.3
20240419215005 51 86 1.7 4.3 0.00 0.00 0.00 91 1017.5
20240419214505 51 96 0.9 2.6 0.00 0.00 0.00 91 1017.7
20240419214004 52 149 0.9 4.3 0.00 0.00 0.00 91 1017.7
20240419213505 52 83 0.9 2.6 0.00 0.00 0.00 91 1017.6
20240419213004 52 107 1.7 4.3 0.00 0.00 0.00 91 1017.8
20240419212504 52 119 2.6 4.3 0.00 0.00 0.00 91 1017.8
20240419211504 52 83 1.7 5.2 0.00 0.00 0.00 91 1017.8
20240419211003 52 112 1.7 2.6 0.00 0.00 0.00 91 1017.7
20240419210004 52 91 1.7 2.6 0.00 0.00 0.00 91 1018.1
20240419205504 52 100 0.0 2.6 0.00 0.00 0.00 91 1018.2
20240419205004 52 80 1.7 4.3 0.00 0.00 0.00 91 1018.2
20240419204505 52 112 2.6 5.2 0.00 0.00 0.00 91 1018.3
20240419204004 52 71 2.6 6.1 0.00 0.00 0.00 91 1018.2
20240419203504 52 132 0.9 2.6 0.00 0.00 0.00 91 1018.3
20240419203005 52 51 1.7 4.3 0.00 0.00 0.00 91 1018.5
20240419202505 52 64 1.7 2.6 0.00 0.00 0.00 91 1018.6
20240419202004 52 88 0.9 2.6 0.00 0.00 0.00 91 1018.7
20240419201503 52 68 1.7 5.2 0.00 0.00 0.00 90 1018.8
20240419200504 53 19 0.9 2.6 0.00 0.00 0.00 90 1018.9
20240419200005 53 41 0.9 2.6 0.00 0.00 0.00 90 1018.8
20240419195504 53 61 0.0 4.3 0.00 0.00 0.00 90 1018.8
20240419195004 53 30 1.7 5.2 0.00 0.00 0.00 89 1018.8
20240419194506 53 19 1.7 4.3 0.00 0.00 0.00 89 1018.7
20240419193504 54 50 0.9 4.3 0.00 0.00 0.00 86 1018.6
20240419193004 54 48 0.9 2.6 0.00 0.00 0.00 87 1018.5
20240419192505 54 54 0.9 2.6 0.00 0.00 0.00 87 1018.7
20240419192005 54 60 1.7 2.6 0.00 0.00 0.00 87 1018.8
20240419191505 54 117 0.9 2.6 0.00 0.00 0.00 86 1019.0
20240419191004 54 144 0.0 1.7 0.00 0.00 0.00 86 1019.2
20240419190504 54 126 0.9 1.7 0.00 0.00 0.00 85 1019.3
20240419185503 54 141 0.0 1.7 0.00 0.00 0.00 85 1019.3
20240419184504 54 170 0.9 2.6 0.00 0.00 0.00 85 1019.4
20240419184004 54 150 0.9 2.6 0.00 0.00 0.00 86 1019.3
20240419183504 54 127 0.0 2.6 0.00 0.00 0.00 86 1019.2
20240419183003 54 149 0.9 2.6 0.00 0.00 0.00 87 1019.0
20240419182505 53 159 0.9 4.3 0.00 0.00 0.00 86 1018.6
20240419182005 54 73 1.7 5.2 0.00 0.00 0.00 86 1018.6
20240419181504 54 101 1.7 2.6 0.00 0.00 0.00 86 1018.8
20240419181004 53 111 1.7 5.2 0.00 0.00 0.00 86 1018.4
20240419180504 53 97 1.7 7.0 0.00 0.00 0.00 87 1018.2
20240419180004 53 126 2.6 6.1 0.00 0.00 0.00 87 1018.4
20240419175503 53 115 2.6 7.8 0.00 0.00 0.00 87 1018.7
20240419175004 53 95 3.5 7.8 0.00 0.00 0.00 87 1018.8
20240419174504 53 112 4.3 7.8 0.00 0.00 0.00 87 1018.5